www.pogodaiklimat.ru

Погода и климат >> Архив погоды >> Кука Острова >> Rarotonga


ПОГОДА в Rarotonga

  • Прогноз погоды в Rarotonga
  • Монитор погоды в Rarotonga
  • Климат города

АРХИВ ПОГОДЫ в Rarotonga

Время (UTC), дата Ветер
(напр.,м/с)
 
Видим.   Явления Облачность Т
(С)
Тd
(С)
f
(%)
Тe
(С)
Тes
(С)
Комфортность P
(гПа)
Po
(гПа)
Тmin
(С)
Tmax
(С)
R
(мм)
R24
(мм)
S
(см)
18 15.11 В 3 10 км слабый ливневой дождь {морось} 10/6 360 м
[Cu med, cong Ac As]
+24.4 +23.1 92 +32 +33 очень
душно
1014.6 1015.0 2
21 15.11 ЮВ 1 10 км слабый ливневой дождь 10/8 210 м
[Frnb Ac As]
+24.8 +23.6 93 +34 +35 очень
душно
1014.9 1015.0
00 16.11 СЗ 2 20 км осадки на расстоянии {ливн. осадки} 10/6 300 м
[Cu Sc Ac As]
+26.6 +23.6 84 +36 +39 очень
душно
1013.4 1013.0 +22.1
03 16.11 ЮВ 2 20 км {ливн. осадки} 10/6 150 м
[Frnb Ac As]
+24.0 +22.7 92 +31 +32 очень
душно
1012.9 1013.0
06 16.11 ЮВ 1 20 км {ливн. осадки, морось} 10/5 450 м
[Cu med, cong Ac As]
+23.0 +21.8 93 +31 +31 очень
душно
1014.6 1015.0 11
09 16.11 В 3 20 км слабая морось {ливн. осадки} 10/5 270 м
[Frnb Ac As]
+22.5 +22.1 98 +30 +30 очень
душно
1015.9 1016.0
12 16.11 В 3 10 км слабый ливневой дождь {морось} 10/5 240 м
[Frnb Ac As]
+22.0 +20.6 92 +28 +28 душно 1014.6 1015.0 +27.0 6
15 16.11 ЮВ 2 20 км слабая морось {ливн. осадки} 9/3 420 м
[Cu med, cong Ac As]
+23.1 +22.0 94 +31 +31 очень
душно
1014.0 1014.0
18 16.11 В 3 20 км слабая морось {ливн. осадки} 9/5 420 м
[Cu med, cong Ac As]
+24.6 +22.5 88 +32 +33 очень
душно
1015.0 1015.0 7
21 16.11 В 8 20 км {морось} 6/5 360 м
[Cu med, cong Ci fib]
+26.9 +22.7 78 +36 +37 очень
душно
1015.3 1015.0
00 17.11 В 3 20 км {морось} 8/8 300 м
[Cu Sc]
+27.0 +22.1 75 +35 +38 очень
душно
1014.6 1015.0 +21.1 0.2
03 17.11 В 3 20 км 8/8 480 м
[Cu Sc]
+26.1 +22.1 79 +34 +35 очень
душно
1014.0 1014.0
06 17.11 ЮВ 5 20 км 5/5 480 м
[Cu Sc]
+24.5 +21.4 83 +31 +31 очень
душно
1015.3 1015.0
09 17.11 В 7 20 км 6/6 480 м
[Sc diur, vesp]
+24.4 +21.6 84 +31 +31 очень
душно
1016.8 1017.0
12 17.11 В 5 20 км 5/5 480 м
[Cu med, cong]
+24.1 +21.7 86 +31 +31 очень
душно
1015.0 1015.0 +28.4
15 17.11 В 5 20 км 5/5 450 м
[Cu med, cong]
+24.2 +21.5 85 +31 +31 очень
душно
1014.5 1015.0
18 17.11 В 6 20 км осадки на расстоянии {ливн. осадки} 5/5 300 м
[Cu Sc Ci fib]
+25.1 +20.6 76 +31 +32 очень
душно
1015.4 1015.0
21 17.11 В 5 20 км 5/5 360 м
[Cu Sc Ci fib]
+27.0 +23.1 79 +36 +41 очень
душно
1015.3 1015.0
00 18.11 В 6 20 км {ливн. осадки} 5/4 300 м
[Cu med, cong Cs]
+27.0 +22.6 77 +36 +41 очень
душно
1014.2 1014.0 +23.0 0.3
03 18.11 В 6 20 км 5/5 360 м
[Cu med, cong Ci sp]
+26.4 +22.3 78 +34 +36 очень
душно
1013.7 1014.0
06 18.11 В 4 20 км 8/3 400 м
[Cu med, cong Ci sp]
+24.5 +21.8 85 +31 +31 очень
душно
1015.2 1015.0
09 18.11 В 5 20 км 6/3 400 м
[Cu med, cong Cs]
+24.5 +22.3 88 +32 +32 очень
душно
1016.4 1016.0
12 18.11 В 4 20 км 6/4 420 м
[Cu med, cong Cs]
+24.4 +21.9 86 +31 +31 очень
душно
1014.9 1015.0 +27.7
15 18.11 В 3 20 км 6/4 360 м
[Cu med, cong Ci fib]
+23.8 +21.8 89 +31 +31 очень
душно
1014.3 1014.0
18 18.11 В 5 20 км 8/4 420 м
[Cu med, cong Ac trans]
+25.7 +22.3 82 +34 +34 очень
душно
1015.7 1016.0
21 18.11 В 6 20 км 5/5 420 м
[Cu Sc]
+27.0 +22.6 77 +36 +40 очень
душно
1015.6 1016.0
00 19.11 В 5 20 км {морось} 9/9 300 м
[Cu Sc]
+27.2 +21.9 73 +35 +36 очень
душно
1014.5 1015.0 +23.0
03 19.11 В 5 20 км {ливн. осадки} 8/3 480 м
[Cu med, cong Ac trans]
+25.9 +21.4 76 +33 +34 очень
душно
1013.7 1014.0
06 19.11 В 4 20 км 5/3 480 м
[Cu med, cong Ac trans Ci fib]
+24.7 +21.1 80 +31 +31 очень
душно
1014.4 1014.0
09 19.11 В 3 20 км 4/4 450 м
[Cu med, cong]
+24.1 +20.9 82 +30 +30 очень
душно
1015.7 1016.0
12 19.11 В 4 20 км 4/4 480 м
[Cu med, cong]
+23.8 +20.5 82 +30 +30 очень
душно
1014.0 1014.0 +27.6
15 19.11 В 4 20 км 3/3 540 м
[Cu med, cong Ac trans]
+23.6 +20.4 82 +29 +29 душно 1013.5 1014.0
18 19.11 В 4 20 км 5/3 480 м
[Cu med, cong Ac trans Ci fib]
+25.3 +21.1 78 +32 +34 очень
душно
1015.2 1015.0
21 19.11 В 5 50 км 3/3 540 м
[Cu hum Ci fib]
+27.0 +21.8 73 +35 +41 очень
душно
1014.9 1015.0
00 20.11 В 4 50 км 4/3 300 м
[Cu hum Ci fib]
+27.6 +21.4 69 +35 +44 очень
душно
1013.5 1014.0 +23.2
03 20.11 В 4 50 км 6/3 450 м
[Cu hum Ci fib]
+26.5 +21.3 73 +34 +36 очень
душно
1012.7 1013.0
06 20.11 В 2 20 км 6/3 540 м
[Cu med, cong Ci fib]
+24.1 +21.1 83 +30 +30 очень
душно
1013.8 1014.0
09 20.11 В 1 20 км 6/4 540 м
[Cu med, cong Ci fib]
+24.1 +21.2 84 +30 +30 очень
душно
1014.4 1014.0
12 20.11 В 2 20 км 6/4 540 м
[Cu med, cong Ci fib]
+23.8 +20.5 82 +30 +30 очень
душно
1012.2 1012.0 +27.6
15 20.11 В 3 20 км {морось} 5/5 540 м
[Cu med, cong Ac As]
+24.5 +21.5 83 +31 +31 очень
душно
1012.2 1012.0
18 20.11 В 2 20 км {морось} 5/3 480 м
[Cu Sc Ci fib]
+26.0 +21.9 78 +33 +36 очень
душно
1013.5 1014.0 0.0
21 20.11 СВ 3 50 км 4/1 540 м
[Cu hum Ci fib]
+27.4 +22.6 75 +36 +50 очень
душно
1013.3 1013.0
00 21.11 С 1 50 км 3/3 300 м
[Cu med, cong]
+28.4 +23.5 75 +39 +55 опасность
солнечного
удара
1012.0 1012.0 +23.0
03 21.11 З 3 50 км 4/4 630 м
[Cu med, cong]
+27.9 +21.2 67 +35 +38 очень
душно
1011.2 1011.0
06 21.11 В 1 20 км 4/3 630 м
[Cu med, cong Ci fib]
+24.5 +21.7 84 +31 +31 очень
душно
1012.5 1013.0
09 21.11 ЮВ 1 20 км 5/5 540 м
[Cu med, cong]
+23.5 +21.2 87 +30 +30 очень
душно
1012.9 1013.0
12 21.11 ЮВ 1 20 км 5/5 540 м
[Cu med, cong]
+23.0 +20.9 88 +30 +30 очень
душно
1010.5 1011.0 +28.8
15 21.11 ЮВ 1 20 км 3/3 540 м
[Cu med, cong]
+22.0 +20.6 92 +28 +28 душно 1010.2 1010.0
18 21.11 В 2 20 км 6/6 480 м
[Cu med, cong]
+25.5 +21.8 80 +33 +35 очень
душно
1011.2 1011.0
21 21.11 В 4 50 км 5/3 540 м
[Cu med, cong Ci fib]
+27.5 +23.2 77 +37 +46 очень
душно
1010.8 1011.0
00 22.11 СВ 3 50 км 8/3 600 м
[Cu hum Ci fib]
+28.0 +22.9 74 +37 +47 очень
душно
1009.9 1010.0 +21.5
03 22.11 С 2 50 км 9/3 700 м
[Cu hum Ci fib]
+27.9 +22.8 74 +37 +41 очень
душно
1008.8 1009.0
06 22.11 Ю 1 20 км 9/3 630 м
[Cu med, cong Ci fib]
+24.6 +22.4 88 +32 +32 очень
душно
1010.0 1010.0
09 22.11 ЮВ 1 20 км 8/4 630 м
[Cu med, cong Ci fib]
+23.6 +21.8 90 +30 +30 очень
душно
1011.1 1011.0
12 22.11 Ю 1 20 км 6/3 630 м
[Cu med, cong Ci fib]
+22.2 +20.5 90 +29 +29 очень
душно
1008.8 1009.0 +29.2
15 22.11 Ю 1 50 км 4/1 750 м
[Cu hum Ci fib]
+22.0 +20.0 88 +28 +28 душно 1008.9 1009.0

 

Местоположение метеостанции Rarotonga (Кука Острова): широта -21.20 долгота -159.80 высота над уровнем моря 7 м.

В архиве по умолчанию представлена погода в Rarotonga за последнюю неделю. Архивные данные за месяц целиком и за предыдущие месяцы, начиная с января 2011 года, Вы можете получить, выбрав интересующий диапазон дат из раскрывающегося списка и нажав кнопку "Ввод!".

Внимание! Время в таблицах - всемирное. Для получения местного времени необходимо прибавить поправку, которая в Rarotonga равна -10 ч.

Смотрите также архив погоды в соседних городах и на ближайших метеорологических станциях:

Погода в Aitutaki (Кука Острова) (264 км)
Погода в Bora-Bora Airport (Французская Полинезия) (1004 км)
Погода в Hanan Airport (Кука Острова) (1080 км)
Погода в Tubuai (Французская Полинезия) (1097 км)
Погода в Tahiti-Faaa (Французская Полинезия) (1144 км)
Погода в Tautira (Французская Полинезия) (1179 км)
Погода в Manihiki (Кука Острова) (1205 км)
Погода в Penrhyn (Кука Острова) (1367 км)
Погода в Le Mafa (Самоа) (1487 км)
Погода в Lufi-Lufi (Самоа) (1488 км)

Пояснения к столбцам:

Ветер - указаны скорость ветра в м/с - средняя за 10 мин, порывы в срок и между сроками (в фигурных скобках) и направление, откуда дует ветер: С - северный, СВ - северо-восточный, В - восточный, ЮВ - юго-восточный, Ю - южный, ЮЗ - юго-западный, З - западный, СЗ - северо-западный.
Видимость - горизонтальная дальность видимости в метрах или километрах. При видимости от 1 до 10 км при отсутствии осадков обычно наблюдается дымка, при ухудшении видимости до 1 км и менее - туман. В сухую погоду видимость может ухудшаться дымом, пылью или мглою.
Явления - указаны атмосферные явления, наблюдавшиеся в срок или в последний час перед сроком; фигурными скобками обозначены явления, наблюдавшиеся между сроками (за 1-3 часа до срока); квадратными скобками обозначены град или гололедные отложения с указанием их диаметра в мм.
Облачность - указаны через наклонную черту общая и нижняя облачность в баллах и высота нижней границы облаков в метрах; квадратными скобками обозначены формы облаков: Ci - перистые, Cs - перисто-слоистые, Cc - перисто-кучевые, Ac - высококучевые, As - высокослоистые, Sc - слоисто-кучевые, Ns - слоисто-дождевые, Cu - кучевые, Cb - кучево-дождевые. Подробнее классификацию облаков см. в Атласе облаков (PDF).
T - Температура воздуха - температура, измеренная на высоте 2 м над землей.
Td - Температура точки росы - температура, при понижении до которой содержащийся в воздухе водяной пар достигнет насыщения.
f - Относительная влажность воздуха - влажноcть воздуха, измеренная на высоте 2 м над землей.
Te - Эффективная температура - температура, которую ощущает одетый по сезону человек в тени. Характеристика душности погоды. При расчете учитывается влияние влажности воздуха и скорости ветра на теплоощущения человека.
Tes - Эффективная температура на солнце - температура, которую ощущает человек, с поправкой на солнечный нагрев. Характеристика знойности погоды. Зависит от высоты солнца над горизонтом, облачности и скорости ветра. Ночью, в пасмурную погоду, а также при ветре 12 м/с и более поправка равна нулю.
P - Атмосферное давление - приведенное к уровню моря атмосферное давление.
Po - Атмосферное давление - измеренное на уровне метеостанции атмосферное давление.
Tmin - Минимальная температура - минимум температуры воздуха на высоте 2 м над землей.
Tmax - Максимальная температура - максимум температуры воздуха на высоте 2 м над землей.
R - Количество осадков - Количество выпавших осадков за период времени, мм. При наведении курсора мыши на число - период времени, за который выпало указанное количество осадков.
R24 - Количество осадков - Количество выпавших осадков за 24 часа, мм.
S - Снежный покров - Высота снежного покрова, см. При наведении курсора мыши на число - состояние снежного покрова и степень покрытия местности в баллах.